This demonstration page uses our WeatherBlox Daily Observations layout. Learn more.

Left ArrowRight Arrow

41.55636, -103.73856

Hourly Observations for February 22, 2020

Temp ( °F °C ) Dew Point ( °F °C ) Humidity (%) Winds ( mph kmh ) Pressure ( in mb ) Visibility ( mi km ) Precip ( " mm )
12:58 am 00:58 Mostly Clear 39 3.9 9 -12.8 29 29 S 6 9 30.23 1024 10 16 N/A
1:58 am 01:58 Clear 39 4.1 8 -13.3 27 27 SSW 5 7 30.23 1024 10 16 N/A
2:58 am 02:58 Clear 28 -2.3 14 -10 56 56 SSW 9 15 30.26 1025 10 16 N/A
3:58 am 03:58 Clear 34 1.1 11 -11.5 39 39 S 10 17 30.17 1022 10 16 N/A
4:58 am 04:58 Clear 31 -0.3 14 -9.9 49 49 SW 13 20 30.16 1021 10 16 N/A
5:58 am 05:58 Clear 37 2.6 11 -11.9 34 34 SW 15 24 30.11 1020 10 16 N/A
6:58 am 06:58 Clear 38 3.2 9 -12.7 30 30 SSW 22 35 30.08 1019 10 16 N/A
7:58 am 07:58 Clear 35 1.8 11 -11.5 37 37 SSW 16 26 30.06 1018 10 16 N/A
8:58 am 08:58 Clear 35 1.8 11 -11.8 36 36 WSW 8 13 30.05 1018 10 16 N/A
9:58 am 09:58 Clear 36 2.2 10 -12.4 33 33 NW 6 9 30.04 1017 10 16 N/A
10:58 am 10:58 Clear 31 -0.4 16 -8.9 53 53 SW 12 19 30.04 1017 10 16 N/A
11:58 am 11:58 Clear 35 1.9 18 -7.7 49 49 W 9 15 30.06 1018 10 16 N/A
12:58 pm 12:58 Clear 35 1.4 18 -7.8 51 51 WNW 10 17 30.11 1020 10 16 N/A
1:58 pm 13:58 Sunny 29 -1.7 17 -8.2 62 62 WSW 9 15 30.13 1020 10 16 N/A
2:58 pm 14:58 Sunny 37 2.5 17 -8.2 46 46 WNW 13 20 30.14 1021 10 16 N/A
3:58 pm 15:58 Sunny 44 6.6 12 -11.1 27 27 WNW 17 28 30.11 1020 10 16 N/A
4:58 pm 16:58 Sunny 49 9.5 10 -12.5 20 20 NW 20 31 30.10 1019 10 16 N/A
5:58 pm 17:58 Sunny 52 11.2 8 -13.1 17 17 WNW 20 31 30.05 1018 10 16 N/A
6:58 pm 18:58 Sunny 55 12.5 7 -13.8 15 15 NW 24 39 30.02 1017 10 16 N/A
7:58 pm 19:58 Sunny 56 13.5 8 -13.1 15 15 NW 22 35 29.97 1015 10 16 N/A
8:58 pm 20:58 Sunny 58 14.4 7 -13.7 13 13 NW 20 31 29.96 1015 10 16 N/A
9:58 pm 21:58 Sunny 57 13.7 9 -12.8 15 15 WNW 20 31 29.96 1015 10 16 N/A
10:58 pm 22:58 Sunny 54 12.3 10 -12.5 17 17 NW 24 39 29.98 1015 10 16 N/A
11:58 pm 23:58 Sunny 48 8.9 13 -10.5 24 24 NW 12 19 29.98 1015 10 16 N/A

Powered by AerisWeather